Helicity
151 168 162 149 173 165 168 309 301 157 226 288 479 456 98 129 93 197 277 271 123 103 97 101 109 64 61 33 88 98 66 105 72 53 72 37 -29 -3 48 80 68 104 80 36
190 192 167 173 210 216 302 405 393 78 232 311 380 311 149 177 157 136 191 154 96 113 86 117 91 76 72 114 59 57 161 119 69 51 46 25 20 11 36 98 129 73 55 50
100 121 137 186 264 253 333 521 493 364 152 164 174 255 208 123 187 159 89 165 125 105 101 160 141 93 88 88 51 126 121 87 63 66 40 43 20 9 26 45 34 50 62 40
71 100 85 209 328 275 352 455 517 594 436 212 99 150 213 161 103 154 111 112 80 100 111 170 171 96 93 54 105 89 84 53 53 33 8 -1 -5 -16 10 20 19 -8 26 18
78 94 106 185 354 276 399 517 462 331 258 189 125 172 147 104 76 133 142 99 78 84 95 180 155 171 186 126 77 66 103 75 48 23 14 14 -4 -20 -46 -43 -34 -73 10 7
77 75 96 175 365 324 460 382 342 250 257 132 173 210 155 157 96 67 98 69 108 66 83 118 132 215 258 253 93 72 107 93 57 -2 46 56 79 -12 3 7 -8 11 -15 -26
74 88 92 70 397 327 423 314 351 273 192 181 176 98 170 99 164 134 150 114 65 50 186 95 75 48 249 137 167 100 103 105 113 64 114 54 47 89 6 4 -8 6 -40 25
83 89 107 47 412 201 357 351 423 229 177 93 100 119 154 100 122 163 172 155 70 85 79 34 35 32 82 84 107 88 95 92 118 130 79 58 78 90 107 91 4 33 34 59
79 88 112 44 362 195 378 231 465 258 136 103 125 84 137 156 151 149 127 140 187 153 108 92 -1 13 72 138 84 131 120 138 126 150 112 40 32 58 78 80 -20 17 61 20
98 67 64 245 223 128 392 292 306 315 140 150 124 96 56 52 143 160 207 205 184 108 122 74 73 4 103 99 151 125 159 163 141 127 133 96 107 135 138 66 31 78 53 63
80 48 61 201 186 134 373 254 297 266 235 206 170 193 45 63 108 143 211 247 159 110 120 124 38 77 105 61 46 156 112 156 176 167 155 72 166 196 130 102 71 71 69 104
83 82 99 406 178 176 278 275 300 298 289 179 86 114 231 168 1 106 150 231 128 120 119 116 117 75 110 91 66 123 67 171 150 114 132 137 129 83 59 87 97 100 87 117
73 50 158 122 154 230 292 307 275 246 140 53 31 -5 136 123 109 115 130 141 131 125 159 150 148 114 154 97 79 52 91 127 83 74 66 85 98 94 129 111 143 119 107 124
49 85 155 106 222 303 385 331 226 174 131 48 -22 1 130 94 59 75 126 96 82 103 120 146 141 120 97 63 66 82 97 86 60 64 65 103 84 78 93 162 169 134 136 126
128 260 245 142 298 365 385 287 236 184 132 -32 -74 46 253 42 109 37 86 130 148 137 121 162 155 161 114 125 135 95 130 111 148 93 42 62 32 55 115 164 154 127 156 164
179 115 139 246 335 348 353 182 155 144 89 11 71 22 91 46 57 23 -1 32 156 212 140 119 115 116 140 122 94 43 87 99 74 62 54 58 93 95 76 106 127 129 132 165
102 246 368 274 275 310 193 107 51 51 49 3 50 70 27 32 -13 68 61 74 115 116 93 95 117 112 96 99 59 81 88 69 87 151 92 69 91 95 95 120 184 213 215 242
115 111 123 101 151 143 169 150 72 172 81 32 127 130 69 47 71 138 37 53 85 99 115 121 109 115 120 114 83 96 129 131 109 109 133 136 96 155 137 200 221 263 282 314
68 67 73 106 84 45 87 85 6 108 85 32 22 226 182 100 65 55 69 158 111 111 111 134 118 119 125 155 157 137 130 140 102 129 157 125 130 149 184 211 196 257 315 347
69 84 97 44 -62 -81 25 55 164 135 -26 22 71 97 276 152 119 64 55 74 111 105 72 107 90 60 163 215 196 137 48 40 46 74 122 152 201 183 217 271 272 268 335 414
124 103 55 11 -31 149 157 156 59 46 21 -12 40 74 109 106 118 71 71 39 110 85 93 127 76 58 160 239 206 131 92 77 93 104 105 84 93 147 268 326 215 228 239 303
84 77 86 81 136 115 65 45 38 35 -35 50 50 43 60 102 84 82 65 71 61 55 106 127 108 168 232 183 185 225 189 144 168 149 153 135 141 234 310 450 359 357 389 496
132 125 42 73 48 56 55 13 28 28 -16 22 59 82 26 37 49 71 76 52 47 60 82 149 188 245 241 217 203 224 273 281 284 287 329 258 380 343 297 382 425 421 508 482
53 45 -5 24 -14 -17 -37 28 -96 -69 -47 44 33 72 46 -1 51 57 78 97 72 86 111 143 191 273 230 209 190 210 271 293 284 233 276 300 350 310 354 385 350 345 398 396
1 49 -45 -39 -20 -13 -28 -42 11 26 69 65 96 106 70 75 56 112 138 162 159 153 153 163 199 132 109 113 100 117 141 160 192 213 265 286 306 350 382 366 339 336 311 295
15 -33 -23 45 14 104 123 105 121 150 141 132 111 138 122 132 107 88 156 112 132 166 183 193 139 114 144 143 126 134 158 202 238 245 237 274 301 284 271 298 312 296 275 273
11 40 47 78 105 185 257 273 247 204 146 132 153 165 153 122 147 173 134 156 176 175 154 132 117 131 152 154 173 183 180 189 190 203 217 211 209 226 263 278 244 235 226 215
Wind_Speed
85 82 77 71 66 59 52 57 78 45 48 78 96 97 97 86 79 76 68 63 53 45 47 47 59 59 39 37 44 43 35 40 32 23 20 21 6 9 12 19 31 45 52 62
85 81 80 77 76 71 59 66 66 47 55 84 97 102 116 110 80 86 69 62 62 55 50 51 60 51 43 37 38 43 35 42 34 27 27 21 11 9 21 34 41 54 59 56
80 78 76 79 83 81 65 62 72 57 76 74 89 103 111 115 106 96 82 68 59 53 53 51 54 52 41 44 52 46 28 39 31 28 27 17 13 14 14 21 17 27 40 71
80 95 84 79 85 84 73 69 72 67 80 78 85 105 112 124 130 102 82 78 77 58 58 54 54 42 38 36 50 50 47 53 39 34 32 26 21 20 26 32 27 27 75 68
82 74 70 79 89 87 81 74 66 65 74 69 79 108 122 132 120 111 102 89 67 65 67 47 46 39 35 42 45 48 47 53 41 36 29 32 16 23 32 38 46 52 78 78
83 69 90 84 90 91 79 77 80 74 88 77 77 112 132 123 116 117 99 97 81 79 78 61 44 46 49 51 45 52 53 55 47 50 36 40 43 18 19 23 31 22 40 72
85 70 100 110 92 90 79 76 76 77 85 80 67 96 118 128 115 112 92 80 80 61 54 53 53 63 53 53 58 58 52 52 47 51 34 48 39 32 12 28 37 24 61 60
88 82 98 110 94 90 76 73 69 77 78 70 58 102 125 99 97 101 93 71 73 56 55 63 65 59 65 65 57 58 57 50 49 47 50 54 34 25 20 13 20 15 26 24
71 98 102 115 98 91 71 72 64 60 76 72 47 95 103 118 106 84 83 66 49 47 54 57 70 74 71 56 56 50 51 56 56 44 55 54 51 36 32 38 29 52 33 17
84 97 95 86 95 93 66 62 69 61 64 43 61 83 94 98 93 91 76 67 65 54 63 72 68 67 53 77 60 55 54 55 56 55 56 48 43 31 22 18 45 43 42 34
91 101 86 88 78 86 64 56 64 65 58 42 47 55 75 80 85 95 75 69 69 66 72 70 64 64 61 62 76 58 59 54 54 51 58 53 24 24 24 38 51 48 44 24
71 84 83 81 69 73 59 54 51 55 55 40 45 54 65 71 83 78 72 78 69 68 65 65 65 65 56 63 71 60 71 57 54 47 52 49 11 29 35 45 47 44 36 21
89 98 89 83 65 59 59 48 47 43 46 53 50 51 62 64 72 76 75 77 60 75 64 58 61 69 64 75 81 81 69 58 59 53 54 52 41 36 45 41 40 38 29 11
92 100 64 63 55 50 43 41 41 39 42 68 63 31 55 57 67 77 81 70 62 56 65 72 67 69 63 76 70 76 66 50 55 60 61 52 50 42 36 35 36 33 19 6
73 59 59 58 53 42 33 29 33 35 54 57 63 55 61 67 73 77 80 72 62 56 53 60 74 60 58 67 65 76 55 52 55 63 62 56 63 47 28 26 26 24 14 9
45 48 56 49 43 36 33 37 51 41 49 40 41 41 46 51 63 77 83 90 70 57 68 61 60 50 59 63 77 81 63 61 71 72 59 58 48 46 27 25 23 19 17 13
45 45 41 37 30 30 38 39 38 24 55 47 40 37 33 39 42 56 69 73 73 69 66 63 62 61 60 70 86 68 64 62 58 58 52 60 47 50 29 26 19 18 17 15
40 41 36 30 20 28 42 32 27 43 47 43 43 38 39 46 43 37 42 53 52 58 67 55 63 51 58 75 73 74 58 51 56 53 53 59 50 38 29 20 17 16 18 16
43 41 32 20 31 26 32 37 46 55 50 48 43 42 40 39 38 38 31 34 48 40 62 59 50 59 69 57 60 58 54 56 56 52 52 51 50 41 32 26 23 24 20 19
51 25 35 44 40 17 29 42 49 61 52 48 46 39 42 35 34 35 35 37 33 49 44 39 63 76 53 55 55 54 55 54 47 59 64 56 49 39 32 29 29 23 18 18
57 49 46 36 57 64 33 39 52 52 47 45 43 43 38 30 35 35 39 34 33 41 40 44 49 56 56 60 57 51 49 45 47 52 50 45 35 30 25 25 26 18 19 17
54 50 48 56 54 48 41 48 44 45 47 39 43 42 37 37 35 30 34 36 34 39 29 39 47 47 55 56 56 53 49 45 45 41 36 32 31 33 29 20 20 21 19 17
55 54 54 52 46 40 43 51 52 51 41 36 35 31 26 30 33 32 32 37 40 30 33 38 43 55 54 51 47 43 39 37 36 36 32 28 30 30 25 20 14 15 14 9
48 46 53 41 45 42 38 38 38 39 38 36 31 28 26 27 28 29 32 33 30 36 40 40 50 54 51 46 41 36 35 31 29 28 26 26 21 18 19 16 9 5 7 8
39 32 42 33 31 33 39 45 42 38 40 36 26 23 24 24 25 27 28 32 36 37 41 48 54 50 44 37 33 29 26 23 23 23 19 18 17 17 18 18 16 15 14 15
34 25 32 21 35 30 34 38 45 43 35 28 24 23 25 27 29 27 30 29 32 37 44 50 46 41 37 34 31 29 27 25 24 24 22 22 22 22 22 23 23 23 21 21
30 27 9 22 31 30 26 29 33 40 38 21 22 25 26 27 28 30 33 31 33 40 40 41 40 37 34 31 30 30 30 30 30 28 28 27 27 26 26 26 27 27 27 27
Wind_Direction
251 247 241 232 223 220 219 238 244 238 212 227 231 232 233 236 240 244 248 253 253 257 254 254 249 247 245 243 233 231 239 264 268 278 312 299 269 217 249 279 286 280 282 278
248 242 236 227 217 210 215 235 241 226 216 229 230 228 233 234 242 238 242 244 248 252 256 255 250 252 247 239 235 244 234 253 263 267 286 296 271 233 276 284 284 278 280 285
252 239 229 223 213 205 213 228 230 234 229 231 227 223 229 233 232 236 238 241 246 249 253 252 252 250 251 244 245 248 230 249 236 258 275 276 236 213 236 264 244 289 289 279
250 244 239 215 205 199 210 223 231 228 224 225 213 226 227 226 224 228 235 239 240 242 250 249 249 250 246 251 246 246 244 248 259 265 279 280 224 221 208 210 220 244 271 281
243 241 230 208 198 196 215 221 228 226 234 225 220 226 226 222 222 226 230 234 238 243 245 248 244 239 248 252 247 242 245 251 260 267 277 286 255 214 208 207 212 221 265 269
236 226 230 212 193 191 216 225 228 228 230 227 228 226 224 221 220 223 230 232 240 243 239 253 259 257 259 259 254 243 245 248 260 269 284 286 288 234 224 214 205 220 214 252
229 220 222 218 191 194 214 219 223 228 229 230 224 220 224 221 221 222 230 233 235 245 249 259 257 251 258 261 251 248 247 248 258 268 276 273 292 299 221 205 210 212 235 278
221 219 219 215 186 187 214 215 221 227 229 235 228 222 221 225 226 226 228 235 240 244 249 249 248 246 250 251 252 248 246 249 258 263 269 279 298 297 294 279 214 239 226 297
208 213 212 208 180 183 214 217 224 232 227 236 235 220 222 218 219 224 228 235 239 238 241 245 240 240 239 246 245 250 248 251 253 264 267 276 283 288 290 295 218 292 311 304
203 205 206 177 169 173 209 220 220 227 229 246 230 220 219 221 225 224 225 228 232 238 240 240 241 243 245 241 244 245 244 249 251 260 271 285 287 291 290 288 291 313 318 321
197 196 198 189 175 172 208 221 220 224 233 244 238 231 225 222 223 220 224 225 233 235 236 240 244 245 245 245 240 248 246 247 255 262 269 279 298 288 277 294 300 308 318 319
192 194 194 184 178 174 207 214 221 228 234 245 243 246 243 238 226 224 222 229 231 235 237 244 246 246 249 244 244 248 249 256 264 265 275 283 269 286 287 296 304 309 318 321
185 185 187 189 183 185 205 213 216 224 230 235 240 247 240 242 235 231 226 229 236 235 241 248 252 249 248 246 247 249 254 264 268 275 275 278 287 286 293 296 302 310 318 316
179 177 158 169 169 184 195 208 216 220 230 227 231 266 246 245 236 231 230 234 238 247 243 245 250 250 253 249 255 251 256 258 266 271 273 284 291 291 292 296 300 305 310 278
171 162 154 158 178 180 191 208 221 226 226 225 232 253 258 243 235 230 227 230 233 239 244 246 246 255 258 256 259 254 257 262 263 268 272 282 285 298 296 291 289 291 279 255
156 151 146 157 162 175 199 225 227 235 219 226 233 252 251 237 231 227 226 226 235 243 244 250 254 260 257 258 255 256 262 264 260 267 280 281 294 305 310 297 288 282 272 245
146 152 151 150 169 202 223 234 233 220 213 224 243 241 239 229 225 225 226 229 235 242 248 251 254 255 258 260 256 262 265 268 269 271 279 279 291 300 304 298 293 283 277 262
129 127 130 137 183 219 230 246 228 214 220 225 237 233 224 216 214 219 228 229 232 240 244 256 254 263 262 260 262 261 273 277 272 272 278 280 293 304 301 295 291 275 268 259
118 118 124 175 220 234 241 248 202 202 204 224 224 225 216 224 228 214 231 241 236 254 246 253 259 257 255 268 272 276 278 275 275 274 278 282 290 296 297 296 282 277 271 264
108 137 194 193 204 87 154 177 190 196 216 223 227 234 230 239 239 237 237 235 239 244 257 263 257 255 270 274 282 285 283 280 281 276 275 279 286 290 295 295 292 284 269 267
163 169 172 183 134 167 200 196 201 208 218 224 227 227 230 247 237 240 242 254 261 257 265 259 268 268 272 279 282 290 288 290 288 287 287 286 286 281 286 300 292 289 284 274
158 160 167 155 160 183 199 199 207 209 210 228 228 232 239 244 243 255 254 259 266 264 283 270 272 289 291 285 284 286 288 289 288 293 299 300 300 294 293 294 288 292 296 284
161 163 158 157 165 188 202 209 215 214 216 223 221 220 236 251 255 259 262 262 263 287 281 284 296 295 298 294 294 296 300 296 295 296 304 308 310 304 297 306 316 306 296 314
160 163 157 159 152 166 194 209 212 221 230 228 228 233 250 259 258 268 264 270 279 274 279 292 316 309 308 307 306 307 304 312 309 311 320 314 345 327 314 330 347 45 22 356
156 173 151 155 178 187 187 195 222 232 223 225 228 244 263 265 275 286 281 277 275 285 290 296 301 316 337 328 325 331 329 333 344 350 349 354 3 13 11 8 12 13 6 353
164 165 160 175 153 159 162 169 177 188 207 219 239 256 267 275 278 286 286 285 288 299 309 318 329 340 347 355 357 1 5 5 10 12 13 19 21 21 22 15 7 2 359 354
151 160 162 159 158 161 168 172 183 193 204 239 261 272 282 290 284 283 289 293 308 308 320 333 351 2 3 3 9 15 21 24 28 30 25 22 20 18 13 7 1 2 359 354